Regional Weather Roundup
Issued by NWS

Home | Current Version | Previous Version | Text Only | Print | Product List | Glossary Off
Versions: 1 2 3 4 5 6 7 8 9 10 11 12 13 14 15 16 17 18 19 20 21 22 23 24 25 26 27 28 29 30 31 32 33 34 35 36 37 38 39 40 41 42 43 44 45 46 47 48 49 50

000
ASUS43 KLOT 222304
RWRIL

ILLINOIS REGIONAL WEATHER ROUNDUP
NATIONAL WEATHER SERVICE CHICAGO/ROMEOVILLE IL
600 PM CDT THU JUN 22 2017

NOTE: "FAIR" INDICATES FEW OR NO CLOUDS BELOW 12,000 FEET WITH NO
SIGNIFICANT WEATHER AND/OR OBSTRUCTIONS TO VISIBILITY.

* THESE STATIONS ARE NOT UNDER NWS QUALITY CONTROL. THEY ALSO MAY NOT
  REPORT WEATHER SUCH AS PRECIPITATION OR FOG.

ILZ001-002-007-009-015-016-024-230000-
NORTHWEST ILLINOIS

CITY           SKY/WX    TMP DP  RH WIND       PRES   REMARKS
MOLINE         MOSUNNY   85  71  63 S17G30    29.65F HX  90
STERLING*      SUNNY     83  71  67 S12G23    29.67F HX  87
SAVANNA*       CLOUDY    83  71  66 SW9       29.69R HX  87
$$

ILZ003-004-008-010-011-017-018-230000-
NORTH CENTRAL ILLINOIS

CITY           SKY/WX    TMP DP  RH WIND       PRES   REMARKS
ROCKFORD       MOSUNNY   87  68  52 SW21G28   29.69F HX  90
FREEPORT*      CLOUDY    82  68  64 S10G18    29.71S HX  84
ROCHELLE*      MOSUNNY   85  71  63 S17G26    29.69F HX  89
DE KALB*       MOSUNNY   84  71  65 S21       29.71F HX  89
PERU*          MOSUNNY   83  70  65 SW15      29.73F HX  87
$$

ILZ005-006-012>014-019>023-230000-
NORTHEAST ILLINOIS

CITY           SKY/WX    TMP DP  RH WIND       PRES   REMARKS
CHICAGO-OHARE  CLOUDY    85  68  56 SW21G31   29.71F HX  88
CHICAGO-MIDWAY PTSUNNY   85  71  63 S15       29.72F HX  90
AURORA         SUNNY     85  71  63 S18G25    29.72F HX  90
LANSING*       CLOUDY    85  70  60 S15       29.75F HX  89
JOLIET*        MOSUNNY   85  73  65 SW10      29.74F HX  92
WAUKEGAN       PTSUNNY   84  70  62 SW14      29.68F HX  88
DUPAGE AIRPORT MOSUNNY   83  72  69 S16G29    29.71F HX  88
WHEELING       MOSUNNY   84  71  65 S21G26    29.72F HX  89
MORRIS*        MOSUNNY   85  70  60 SW16      29.72F HX  89
ROMEOVILLE*    PTSUNNY   85  68  55 SW16G22   29.74F HX  88
NORTHERLY ISL    N/A     83  67  58 S13         N/A  HX  85
$$

LMZ740>746-230000-
SOUTHERN LAKE MICHIGAN

STATION/POSITION SKY/WX   TEMP    WIND        PRES    VSBY  WAVE
                          AIR SEA DIR/SP/G                  HT/PER
                          (F)     (DEG/KT/KT) (MB)    (MI)  (FT/S)
SOUTHERN BUOY              67 61  150/  8/ 10 1006.9          2/ 4
WILMETTE HARBOR            75 65  190/ 10/ 14   N/A           1/ 3
HARRISON CRIB              83     210/ 27/ 30   N/A
BURNHAM HARBOR             83                   N/A
CALUMET HARBOR             83     180/ 12/ 15 1006.6F
BURNS HARBOR               81     200/ 17/ 27 1007.8F
MICHIGAN CITY              81     190/ 20/ 22   N/A
MICHIGAN CITY 6N           77 68  200/ 14/ 21   N/A           2/ 3
ST. JOSEPH                 76 69  210/ 12/ 19 1007.0F         2/ 3
$$

ILZ025>027-034>036-040-047-049-050-058-095>099-230000-
WEST-CENTRAL ILLINOIS

CITY           SKY/WX    TMP DP  RH WIND       PRES   REMARKS
QUINCY         CLOUDY    82  72  71 S7        29.72F HX  87
GALESBURG*     MOSUNNY   82  71  70 S14       29.72F HX  86
MACOMB*        MOSUNNY   82  72  70 S12       29.74F HX  87
JACKSONVILLE*  CLOUDY    83  72  69 S7        29.75S HX  87
PITTSFIELD*    CLOUDY    82  74  77 SE6       29.75F HX  88
$$

ILZ028>032-037-038-041>044-048-051>054-059>061-230000-
CENTRAL ILLINOIS

CITY           SKY/WX    TMP DP  RH WIND       PRES   REMARKS
PONTIAC        PTSUNNY   84  75  74 S13       29.76F HX  93
BLOOMINGTON    LGT RAIN  78  72  81 S23       29.78F HX  80
DECATUR        CLOUDY    79  72  79 S14       29.79S HX  82
PEORIA         CLOUDY    83  72  69 S15       29.73F HX  88
LACON*         MOSUNNY   83  73  70 S10G18    29.72F HX  89
LINCOLN*       PTSUNNY   82  74  74 S14G20    29.75F HX  88
SPRINGFIELD    CLOUDY    82  75  79 S12       29.76S HX  89
TAYLORVILLE    RAIN      75  74  99 SE10      29.79S
$$

ILZ033-039-045-046-055>057-062-063-230000-
EAST-CENTRAL ILLINOIS

CITY           SKY/WX    TMP DP  RH WIND       PRES   REMARKS
CHAMPAIGN      CLOUDY    78  70  76 S15       29.80F HX  80
RANTOUL*       CLOUDY    81  72  74 S20G26    29.79F HX  85
MATTOON        CLOUDY    76  72  87 SE14      29.80F
$$

ILZ079-100>102-230000-
SOUTHWEST ILLINOIS

CITY           SKY/WX    TMP DP  RH WIND       PRES   REMARKS
ALTON          PTSUNNY   81  73  78 S9        29.76F HX  85
BELLEVILLE     CLOUDY    81  74  79 S9        29.77S HX  86
CAHOKIA*       CLOUDY    85  71  63 S9        29.75S HX  90
SPARTA*        CLOUDY    77  75  93 SE7       29.78F
$$

ILZ064>066-069>071-074>076-080>082-084>086-088>090-092>094-230000-
SOUTH-CENTRAL ILLINOIS

CITY           SKY/WX    TMP DP  RH WIND       PRES   REMARKS
CARBONDALE     CLOUDY    78  77  96 SE8       29.77F HX  81
CAIRO*         PTSUNNY   83  76  79 E5        29.76F HX  90
EFFINGHAM*     CLOUDY    76  73  90 SE14      29.81F
MARION         CLOUDY    79  79 100 SE6       29.79F HX  83
MT. VERNON     LGT RAIN  75  74  96 SE6       29.81S
CENTRALIA*     CLOUDY    79  75  90 SE10      29.78F HX  82
SALEM*         CLOUDY    78  73  85 S6        29.79F HX  80
METROPOLIS*    CLOUDY    82  76  82 NE5       29.78F HX  89
$$

ILZ067-068-072-073-078-083-087-091-230000-
SOUTHEAST ILLINOIS

CITY           SKY/WX    TMP DP  RH WIND       PRES   REMARKS
LAWRENCEVILLE  CLOUDY    75  70  84 S17G24    29.83F
FLORA*         CLOUDY   N/A N/A N/A SE10      29.81F
FAIRFIELD*     CLOUDY    74  74  98 SE5       29.80F FOG
HARRISBURG*    CLOUDY    77  74  92 SE6       29.81F
ROBINSON*      CLOUDY    75  70  85 S14G22    29.84S
CARMI*         RAIN      75  73  95 SE12      29.81F
$$

ABBREVIATIONS USED IN REMARKS
   TC - TEMPERATURE IN CELSIUS
  WCI - WIND CHILL INDEX
   HX - HEAT INDEX
  VSB - VISIBILITY
$$





USA.gov is the U.S. government's official web portal to all federal, state and local government web resources and services.